TimeCDT,TemperatureF,Dew PointF,Humidity,Sea Level PressureIn,VisibilityMPH,Wind Direction,Wind SpeedMPH,Gust SpeedMPH,PrecipitationIn,Events,Conditions,WindDirDegrees,DateUTC
12:53 AM,62.1,61.0,96,30.08,2.5,Calm,Calm,-,N/A,,Clear,0,2013-07-05 05:53:00
1:06 AM,62.6,60.8,94,30.09,1.2,Calm,Calm,-,N/A,,Partly Cloudy,0,2013-07-05 06:06:00
1:09 AM,60.8,60.8,100,30.09,0.8,Calm,Calm,-,N/A,,Mist,0,2013-07-05 06:09:00
1:40 AM,60.8,60.8,100,30.09,0.2,Calm,Calm,-,N/A,Fog,Fog,0,2013-07-05 06:40:00
1:53 AM,60.1,59.0,96,30.08,0.2,Calm,Calm,-,N/A,Fog,Fog,0,2013-07-05 06:53:00
2:33 AM,60.8,60.8,100,30.08,0.8,Calm,Calm,-,N/A,,Mist,0,2013-07-05 07:33:00
2:53 AM,60.1,59.0,96,30.07,3.0,SE,3.5,-,N/A,,Clear,140,2013-07-05 07:53:00
3:53 AM,59.0,57.9,96,30.08,3.0,Calm,Calm,-,N/A,,Clear,0,2013-07-05 08:53:00
4:10 AM,59.0,57.2,94,30.09,1.8,Calm,Calm,-,N/A,,Clear,0,2013-07-05 09:10:00
4:53 AM,60.1,59.0,96,30.08,0.8,Calm,Calm,-,N/A,,Mist,0,2013-07-05 09:53:00
5:15 AM,59.0,57.2,94,30.09,0.2,Calm,Calm,-,N/A,Fog,Fog,0,2013-07-05 10:15:00
5:25 AM,59.0,57.2,94,30.10,0.5,Calm,Calm,-,N/A,Fog,Fog,0,2013-07-05 10:25:00
5:29 AM,59.0,57.2,94,30.10,1.0,Calm,Calm,-,N/A,,Mist,0,2013-07-05 10:29:00
5:32 AM,59.0,57.2,94,30.10,0.2,Calm,Calm,-,N/A,Fog,Fog,0,2013-07-05 10:32:00
5:53 AM,57.9,57.9,100,30.09,0.2,Calm,Calm,-,N/A,Fog,Fog,0,2013-07-05 10:53:00
6:32 AM,59.0,57.2,94,30.10,0.5,Calm,Calm,-,N/A,Fog,Fog,0,2013-07-05 11:32:00
6:53 AM,57.9,57.9,100,30.10,0.2,Calm,Calm,-,N/A,Fog,Fog,0,2013-07-05 11:53:00
7:13 AM,62.6,60.8,94,30.11,0.8,Calm,Calm,-,N/A,,Mist,0,2013-07-05 12:13:00
7:19 AM,62.6,62.6,100,30.11,1.2,Calm,Calm,-,N/A,,Partly Cloudy,0,2013-07-05 12:19:00
7:32 AM,64.4,62.6,94,30.11,2.5,Calm,Calm,-,N/A,,Clear,0,2013-07-05 12:32:00
7:43 AM,64.4,62.6,94,30.11,4.0,Calm,Calm,-,N/A,,Clear,0,2013-07-05 12:43:00
7:53 AM,66.9,63.0,87,30.11,5.0,Calm,Calm,-,N/A,,Clear,0,2013-07-05 12:53:00
8:53 AM,72.0,64.0,76,30.12,9.0,WSW,3.5,-,N/A,,Clear,250,2013-07-05 13:53:00
9:53 AM,75.0,64.9,71,30.12,10.0,Variable,3.5,-,N/A,,Mostly Cloudy,0,2013-07-05 14:53:00
10:53 AM,77.0,63.0,62,30.11,10.0,Calm,Calm,-,N/A,,Partly Cloudy,0,2013-07-05 15:53:00
11:40 AM,77.0,64.4,65,30.12,10.0,SSE,8.1,-,N/A,,Mostly Cloudy,160,2013-07-05 16:40:00
11:51 AM,78.8,64.4,61,30.12,10.0,Variable,4.6,-,N/A,,Mostly Cloudy,0,2013-07-05 16:51:00
11:53 AM,79.0,64.0,60,30.11,10.0,Variable,6.9,-,N/A,,Mostly Cloudy,0,2013-07-05 16:53:00
12:53 PM,79.0,64.9,62,30.10,10.0,Variable,4.6,-,N/A,,Scattered Clouds,0,2013-07-05 17:53:00
1:53 PM,81.0,66.0,60,30.10,10.0,South,8.1,-,N/A,,Mostly Cloudy,180,2013-07-05 18:53:00
2:53 PM,81.0,66.0,60,30.08,10.0,SSE,8.1,-,N/A,,Mostly Cloudy,160,2013-07-05 19:53:00
3:53 PM,80.1,64.9,60,30.06,10.0,South,5.8,-,N/A,,Scattered Clouds,170,2013-07-05 20:53:00
4:53 PM,81.0,64.9,58,30.06,10.0,South,6.9,-,N/A,,Clear,180,2013-07-05 21:53:00
5:53 PM,81.0,64.9,58,30.04,10.0,South,8.1,-,N/A,,Partly Cloudy,180,2013-07-05 22:53:00
6:53 PM,80.1,66.0,62,30.05,10.0,South,6.9,-,N/A,,Partly Cloudy,180,2013-07-05 23:53:00
7:53 PM,78.1,66.0,66,30.04,10.0,South,4.6,-,N/A,,Clear,170,2013-07-06 00:53:00
8:53 PM,75.0,66.0,73,30.05,10.0,Calm,Calm,-,N/A,,Clear,0,2013-07-06 01:53:00
9:53 PM,73.0,66.9,81,30.06,10.0,Calm,Calm,-,N/A,,Clear,0,2013-07-06 02:53:00
10:53 PM,71.1,66.0,84,30.08,10.0,SSE,3.5,-,N/A,,Clear,150,2013-07-06 03:53:00
11:53 PM,72.0,66.0,81,30.08,10.0,South,4.6,-,N/A,,Clear,170,2013-07-06 04:53:00